Weather History for Lumberton, NC

Change the Weather History Date:

Sunday, October 20, 2013

  Actual Average Record
Temperature  
Mean Temperature 59 °F 62 °F  
Max Temperature 70 °F 74 °F 86 °F (2005)
Min Temperature 48 °F 50 °F 35 °F (2008)
Degree Days  
Heating Degree Days 6 5  
Month to date heating degree days 14 54  
Since 1 July heating degree days 14 63  
Cooling Degree Days 0 2  
Month to date cooling degree days 80 57  
Year to date cooling degree days 1847 1878  
Growing Degree Days 8 (Base 50)    
Moisture  
Dew Point 49 °F    
Average Humidity 70    
Maximum Humidity 100    
Minimum Humidity 40    
Precipitation  
Precipitation 0.00 in 0.07 in 0.52 in (1999)
Month to date precipitation 0.27 1.94  
Year to date precipitation 37.65 37.13  
Sea Level Pressure  
Sea Level Pressure 30.02 in    
Wind  
Wind Speed 4 mph (NNE)    
Max Wind Speed 18 mph    
Max Gust Speed 22 mph    
Visibility 10 miles    
Events      
T = Trace of Precipitation, MM = Missing Value Source: NWS Daily Summary

Daily Weather History Graph

Daily Weather History Graph

Search for Another Location

Airport:

Trip Planner

Search our weather history database for the weather conditions in past years. The results will help you decide how hot, cold, wet, or windy it might be!

Date:

Astronomy

Oct. 20, 2013 Rise Set
Actual Time 7:26 AM EDT 6:35 PM EDT
Civil Twilight 7:00 AM EDT 7:00 PM EDT
Nautical Twilight 6:31 AM EDT 7:30 PM EDT
Astronomical Twilight 6:02 AM EDT 7:59 PM EDT
Moon 7:47 PM EDT (10/20) 8:57 AM EDT (10/20)
Length of Visible Light 12h 00m
Length of Day
11h 09m
Full, 97% of the Moon is Illuminated
Oct 20
Full
Oct 26
Last Quarter
Nov 3
New
Nov 10
First Quarter
Nov 17
Full

Hourly Weather History & Observations

Time (EDT) Temp. Dew Point Humidity Pressure Visibility Wind Dir Wind Speed Gust Speed Precip Events Conditions
12:54 AM 63.0 °F 57.0 °F 81% 29.92 in 10.0 mi WSW 3.5 mph - N/A   Overcast
1:54 AM 62.1 °F 57.0 °F 84% 29.92 in 10.0 mi West 3.5 mph - N/A   Overcast
2:54 AM 62.1 °F 57.0 °F 84% 29.93 in 10.0 mi Calm Calm - N/A   Overcast
3:54 AM 61.0 °F 57.9 °F 90% 29.93 in 10.0 mi Calm Calm - N/A   Mostly Cloudy
4:54 AM 60.1 °F 57.0 °F 90% 29.93 in 10.0 mi NNW 5.8 mph - N/A   Mostly Cloudy
5:54 AM 59.0 °F 55.0 °F 87% 29.95 in 10.0 mi North 6.9 mph - N/A   Clear
6:54 AM 57.0 °F 53.1 °F 87% 29.98 in 10.0 mi North 5.8 mph - N/A   Clear
7:54 AM 55.0 °F 50.0 °F 83% 30.01 in 10.0 mi NNE 8.1 mph - N/A   Clear
8:54 AM 55.9 °F 46.0 °F 69% 30.04 in 10.0 mi NNE 6.9 mph - N/A   Clear
9:54 AM 59.0 °F 46.0 °F 62% 30.06 in 10.0 mi NNE 10.4 mph - N/A   Clear
10:54 AM 61.0 °F 41.0 °F 48% 30.07 in 10.0 mi NE 11.5 mph - N/A   Clear
11:54 AM 64.9 °F 43.0 °F 45% 30.08 in 10.0 mi NNE 6.9 mph 16.1 mph N/A   Clear
12:54 PM 66.0 °F 42.1 °F 42% 30.07 in 10.0 mi NNE 8.1 mph - N/A   Clear
1:54 PM 66.0 °F 42.1 °F 42% 30.05 in 10.0 mi East 3.5 mph - N/A   Clear
2:54 PM 69.1 °F 44.1 °F 40% 30.03 in 10.0 mi Variable 5.8 mph - N/A   Clear
3:54 PM 69.1 °F 44.1 °F 40% 30.03 in 10.0 mi ENE 3.5 mph - N/A   Clear
4:54 PM 68.0 °F 45.0 °F 43% 30.03 in 10.0 mi North 4.6 mph - N/A   Clear
5:54 PM 66.9 °F 46.0 °F 47% 30.04 in 10.0 mi ENE 4.6 mph - N/A   Clear
6:54 PM 57.0 °F 50.0 °F 77% 30.05 in 10.0 mi Calm Calm - N/A   Clear
7:54 PM 53.1 °F 50.0 °F 89% 30.07 in 10.0 mi Calm Calm - N/A   Clear
8:54 PM 52.0 °F 48.9 °F 89% 30.09 in 10.0 mi Calm Calm - N/A   Clear
9:54 PM 50.0 °F 48.9 °F 96% 30.09 in 10.0 mi Calm Calm - N/A   Clear
10:54 PM 48.9 °F 48.0 °F 97% 30.10 in 9.0 mi Calm Calm - N/A   Clear
11:54 PM 48.9 °F 46.9 °F 93% 30.11 in 10.0 mi Calm Calm - N/A   Clear